This demonstration page uses our WeatherBlox Daily Observations layout. Learn more.

Left ArrowRight Arrow

Hourly Observations for November 7, 2016

Temp ( °F °C ) Dew Point ( °F °C ) Humidity (%) Winds ( mph kmh ) Pressure ( in mb ) Visibility ( mi km ) Precip ( " mm )
12:59 am 00:59 Clear 55 12.8 34 1.1 45 45 NNE 13 20 30.35 1028 10 16 0.00 0.00
1:59 am 01:59 Clear 54 12.2 40 4.4 59 59 NNE 12 19 30.35 1028 10 16 0.00 0.00
2:59 am 02:59 Clear 53 11.7 42 5.6 66 66 NE 15 24 30.36 1028 10 16 0.00 0.00
3:59 am 03:59 Clear 53 11.7 40 4.4 61 61 NE 15 24 30.37 1028 10 16 0.00 0.00
4:59 am 04:59 Clear 52 11.1 36 2.2 55 55 NNE 15 24 30.39 1029 10 16 0.00 0.00
5:59 am 05:59 Mostly Clear 51 10.6 36 2.2 56 56 NNE 13 20 30.40 1029 10 16 0.00 0.00
6:59 am 06:59 Mostly Sunny 52 11.1 36 2.2 55 55 NNE 17 28 30.41 1030 10 16 0.00 0.00
7:59 am 07:59 Mostly Sunny 53 11.7 35 1.7 51 51 NNE 17 28 30.44 1031 10 16 0.00 0.00
8:59 am 08:59 Mostly Sunny 53 11.7 34 1.1 48 48 NNE 15 24 30.45 1031 10 16 0.00 0.00
9:59 am 09:59 Mostly Sunny 55 12.8 37 2.8 51 51 NNE 16 26 30.46 1032 10 16 0.00 0.00
10:59 am 10:59 Mostly Sunny 55 12.8 36 2.2 49 49 NNE 17 28 30.47 1032 10 16 0.00 0.00
11:59 am 11:59 Mostly Sunny 56 13.3 35 1.7 46 46 N 18 30 30.45 1031 10 16 0.00 0.00
12:59 pm 12:59 Mostly Sunny 57 13.9 37 2.8 47 47 N 17 28 30.43 1031 10 16 0.00 0.00
1:59 pm 13:59 Mostly Sunny 56 13.3 37 2.8 49 49 N 15 24 30.42 1030 10 16 0.00 0.00
2:59 pm 14:59 Mostly Sunny 55 12.8 37 2.8 51 51 N 14 22 30.42 1030 10 16 0.00 0.00
3:59 pm 15:59 Mostly Sunny 54 12.2 37 2.8 53 53 N 10 17 30.41 1030 10 16 0.00 0.00
4:59 pm 16:59 Mostly Sunny 52 11.1 36 2.2 55 55 NNE 12 19 30.41 1030 10 16 0.00 0.00
5:59 pm 17:59 Mostly Clear 50 10 36 2.2 59 59 NNE 9 15 30.41 1030 10 16 0.00 0.00
6:59 pm 18:59 Mostly Clear 51 10.6 36 2.2 56 56 NNE 7 11 30.40 1029 10 16 0.00 0.00
7:59 pm 19:59 Clear 50 10 37 2.8 61 61 NNE 7 11 30.40 1029 10 16 0.00 0.00
8:59 pm 20:59 Clear 50 10 38 3.3 63 63 NNE 5 7 30.39 1029 10 16 0.00 0.00
9:59 pm 21:59 Clear 43 6.1 38 3.3 82 82 Calm 30.38 1029 10 16 0.00 0.00
10:59 pm 22:59 Clear 42 5.6 39 3.9 89 89 Calm 30.37 1028 10 16 0.00 0.00
11:59 pm 23:59 Clear 42 5.6 39 3.9 89 89 Calm 30.35 1028 10 16 0.00 0.00

Powered by AerisWeather